Regional Weather Roundup
Issued by NWS

Home | Current Version | Previous Version | Text Only | Print | Product List | Glossary On
Versions: 1 2 3 4 5 6 7 8 9 10 11 12 13 14 15 16 17 18 19 20 21 22 23 24 25 26 27 28 29 30 31 32 33 34 35 36 37 38 39 40 41 42 43 44 45 46 47 48 49 50
000
ASUS46 KSEW 062310
RWRWA

WASHINGTON REGIONAL WEATHER ROUNDUP
NATIONAL WEATHER SERVICE SEATTLE WA
400 PM PDT MON JUL 06 2015

NOTE:"FAIR" INDICATES FEW OR NO CLOUDS BELOW 12,000 FEET WITH NO
SIGNIFICANT WEATHER AND/OR OBSTRUCTIONS TO VISIBILITY.

WAZ505-507>509-070000-
SEATTLE, TACOMA, EVERETT, AND VICINITY

CITY           SKY/WX    TMP DP  RH WIND       PRES   REMARKS
EVERETT        SUNNY     77  56  48 N6        30.00F
BOEING FIELD   PTSUNNY   85  53  33 CALM      29.96F
RENTON         SUNNY     85  52  32 VRB3      29.96F
SEATAC AIRPORT PTSUNNY   83  54  36 VRB5      29.99F
JBLM-MCCHORD   SUNNY     84  55  37 W8        29.98S
PUYALLUP       FAIR      88  54  31 VRB5G13   29.99S
BREMERTON      SUNNY     82  54  36 SW7       30.01S
JBLM-FT LEWIS  SUNNY     84  56  37 W9        29.97F
TACOMA NARROWS SUNNY     83  53  35 VRB7      29.98F
$$

WAZ001-503-506-510-514-515-070000-
NORTH INTERIOR

CITY           SKY/WX    TMP DP  RH WIND       PRES   REMARKS
BELLINGHAM     SUNNY     73  56  54 S9G16     29.97F
FRIDAY HARBOR  SUNNY     68  55  63 SE6       29.99F
EASTSOUND      SUNNY     70  55  60 S12       29.95F
PORT ANGELES   SUNNY     66  55  67 NW12      30.01S
PORT TOWNSEND  FAIR      70  57  64 VRB6G12   29.99F
NAS WHIDBEY    PTSUNNY   66  55  67 SW9       30.04F
ARLINGTON      SUNNY     81  57  44 NW14      29.98S
BURLINGTON     SUNNY     75  57  53 VRB6G16   29.99S
$$

WAZ020-022-039-040-504-511-512-070000-
SOUTHWEST INTERIOR

CITY           SKY/WX    TMP DP  RH WIND       PRES   REMARKS
SHELTON        SUNNY     79  53  40 W15G25    29.97F
OLYMPIA        SUNNY     84  51  31 SW13      29.98S
CHEHALIS       FAIR      86  61  42 CALM      29.98F
KELSO          SUNNY     81  59  47 W8        30.02S
VANCOUVER      SUNNY     89  53  29 SW7       29.94F
SCAPPOOSE, OR  SUNNY     88  58  36 VRB6      29.95S
PORTLAND, OR   MOSUNNY   90  55  30 NW8       29.94F
$$

WAZ021-516-517-070000-
WASHINGTON COAST

CITY           SKY/WX    TMP DP  RH WIND       PRES   REMARKS
FORKS          SUNNY     67  56  67 SW13      30.05S
HOQUIAM        SUNNY     65  54  67 SW14      30.06S
ASTORIA, OR    PTSUNNY   65  57  75 SW12      30.06S
$$

WAZ019-023-024-040-518-519-070000-
CASCADE MOUNTAINS AND COLUMBIA GORGE

CITY           SKY/WX    TMP DP  RH WIND       PRES   REMARKS
TROUTDALE, OR  SUNNY     91  53  27 NW6       29.92F
THE DALLES, OR SUNNY     99  49  18 NW21G29   29.84F HX  96
$$

WAZ026-027-041>044-520-521-070000-
EAST SLOPES

CITY           SKY/WX    TMP DP  RH WIND       PRES   REMARKS
OMAK           SUNNY     96  38  13 SW9       29.89F HX  91
WENATCHEE      SUNNY     95  42  16 E5        29.87F HX  91
ELLENSBURG     SUNNY     99  44  15 NE6       29.91F HX  95
YAKIMA         SUNNY    100  49  17 SE8       29.86F HX  97
$$

WAZ028-034-035-070000-
COLUMBIA BASIN

CITY           SKY/WX    TMP DP  RH WIND       PRES   REMARKS
EPHRATA        SUNNY     95  47  19 SW10      29.88F HX  91
MOSES LAKE     SUNNY     97  47  18 S10       29.89F HX  93
PASCO          SUNNY     99  51  19 VRB5      29.84F HX  96
HERMISTON, OR  SUNNY    100  47  16 W7        29.85F HX  96
$$

WAZ036>038-070000-
NORTHEAST WASHINGTON

CITY           SKY/WX    TMP DP  RH WIND       PRES   REMARKS
SPOKANE GEIGER PTSUNNY   90  39  16 SE8       29.98F
SPOKANE FELTS  MOSUNNY   92  40  16 SE5       29.97F
FAIRCHILD AFB  SUNNY     90  40  17 VRB5      29.99F
COEURDALENE,ID MOSUNNY   88  43  20 E3        29.98F
DEER PARK      MOSUNNY   89  42  19 MISG      30.00F
$$

WAZ029>033-070000-
SOUTHEAST WASHINGTON

CITY           SKY/WX    TMP DP  RH WIND       PRES   REMARKS
PULLMAN        PTSUNNY   91  40  16 NE6       30.00F
LEWISTON, ID   MOSUNNY   97  37  12 E5        29.90F HX  92
WALLA WALLA    SUNNY     99  41  13 VRB7      29.89F HX  94
PENDLETON, OR  SUNNY     98  36  11 W12       29.90F HX  93
$$


USA.gov is the U.S. government's official web portal to all federal, state and local government web resources and services.